THOR ABLESTAR DEB, 19302

Orbit data source: Space-Track

THOR ABLESTAR DEB, 19302 is space debris in LEO originally from a launch on Thu, 29 Jun 1961 UTC launched from the Air Force Eastern Test Range (AFETR). Debris objects in space refer to the collection of defunct objects orbiting the Earth. Examples of debris include non-operational satellites, rocket bodies, and fragments generated from explosions, collisions, or faulty payload assembly.

Loading next visibility...
Identifier
19302, 1961-015MC
Orbit
LEO
Country
Flag of USUS
Related business
Manufacturer
Unknown
Mission
Spacecraft
Bus & Motor
Unknown
Mass
Unknown
Launch date (UTC)
1961-06-29 (65 years ago)
Launch vehicle
Unknown
Launch site
Air Force Eastern Test Range (AFETR)
Object type
Payload
Rocket body
Debris
Shape & HBR
Unknown shape, 0.1 m
Radar Cross Section
Small (<0.1 m²)

Expand to show TLE details & history
Last TLE update: 1 day ago

TLE from 1 day ago
0 THOR ABLESTAR DEB
1 19302U 61015MC  26126.38905177  .00000624  00000-0  38394-3 0  9997
2 19302  66.8442 272.6170 0053781   1.6925 358.4336 14.11342774948950
Epoch: 2026-05-06T09:20Z
TLE epoch observation values (Epoch: 2026-05-06T09:20:14.072Z)
Latitude
-0.00008°
Longitude
-91.69192°
Altitude
817.991 km
Speed
7.465 km/s
True Right ascension
18h 10m 28s
True Declination
0° 00' 00"
Sunlit
Object was in full shadow at epoch
Visualization orbit readout
Latitude
Unknown
Longitude
Unknown
Altitude
Unknown
Speed
Unknown
Apparent Right ascension
Unknown
Apparent Declination
Unknown
Sunlit
N/A
Visualization observer readout
Local Sidereal Time
20:57:15
Azimuth
Unknown
Elevation
Unknown
Doppler factor
Unknown
Orbital elements
Apogee altitude
892.043 km
Perigee altitude
814.262 km
Semi-major axis
7,231.29 km
Eccentricity
0.00538
Inclination
66.8442°
RAAN
272.617°
Arg. of periapsis
1.6925°
True anomaly
358.41664°
Mean anomaly
358.4336°
Eccentric anomaly
358.42513°
Mean motion
3.52955 °/min
Orbital period
102 mins
BSTAR
0.00038394

Documentation

Showing up to 5 results
|